User: anonymous   Login
Location: Newark
(40.7360°N, 74.1730°W)
Time: 09:49:58
(UTC-04:00)
Language:

ISS - Orbit

View from above orbital plane
View from above orbital plane
View from above satellite
View from above satellite

Ground track
Ground track

The orbit data is extracted from the following two-line orbital elements,

1 25544U 98067A   16237.10226530  .00002213  00000-0  39335-4 0  9993
2 25544  51.6439  79.1237 0001792 154.9196 351.0712 15.55083995 15558
Epoch (UTC): 24 August 2016 02:27:15
Eccentricity: 0.0001792
inclination: 51.6439°
perigee height: 401 km
apogee height: 403 km
right ascension of ascending node: 79.1237°
argument of perigee: 154.9196°
revolutions per day: 15.55083995
mean anomaly at epoch: 351.0712°
orbit number at epoch: 1555

The dashed part of the orbit path shows where the satellite is in the earth's shadow,  

DLR